User: anonymous   Login
Location: Caltech
(34.1382°N, 118.1253°W)
Time: 10:09:04
(UTC-08:00)
Language:

Oscar 16 - Orbit

View from above orbital plane
View from above orbital plane
View from above satellite
View from above satellite

Ground track
Ground track

The orbit data is extracted from the following two-line orbital elements,

1 20439U 90005D   17055.80143854  .00000021  00000-0  24018-4 0  9995
2 20439  98.5999 355.9219 0011639 130.0544 283.1001 14.32668345415311
Epoch (UTC): 24 February 2017 19:14:04
Eccentricity: 0.0011639
inclination: 98.5999°
perigee height: 774 km
apogee height: 791 km
right ascension of ascending node: 355.9219°
argument of perigee: 130.0544°
revolutions per day: 14.32668345
mean anomaly at epoch: 283.1001°
orbit number at epoch: 41531

The dashed part of the orbit path shows where the satellite is in the earth's shadow,  

DLR